Погода в Шекшове

Россия / Ивановская область     56°31′55″N   40°11′16″E
темп.,
°C
ветер,
м/с
пор.,
м/с
влажн.,
%
обл.,
%
осадки,
мм/ч
давл.,
гПа
погр.,
м
10 апреля, сб
сб1000:00−1ююз37830 0.0 102689
03:00−1ю49844 0.0 1027118
06:00−3ю49861 0.0 1028115
09:00+1ю39940 0.0 1028212
12:00+3ю389981 0.0 1027249
15:00+5ю24902 0.0 1026194
18:00+3ююв22884 0.0 102625
21:000ю34820 0.0 102642
11 апреля, вс
вс1100:000ю38790 0.0 102698
03:000ююз410800 0.0 1027139
06:000юз49820 0.0 1027124
09:00+4юз37775 0.0 1029200
12:00+8юз45680 0.0 1030397
15:00+11ююз35640 0.0 1030622
18:00+8ю22710 0.0 103113
21:00+5ю22745 0.0 103310
12 апреля, пн
пн1200:00+5ююв2275100 0.0 103310
03:00+3ююв228098 0.0 103411
06:00+3вюв338291 0.0 103427
09:00+7вюв4869100 0.0 1034309
12:00+11вюв6952100 0.0 1033732
15:00+12вюв6948100 0.0 1031700
18:00+9вюв51070100 0.0 1030423
21:00+7в51087100 0.0 1030288
13 апреля, вт
вт1300:00+6вюв4998100 0.0 1029180
03:00+6юв3996100 0.0 1027159
06:00+6ююв31091100 0.0 1026163
09:00+12ююв61267100 0.0 1025360
12:00+16ю6947100 0.0 1025746
15:00+19ю683790 0.0 10241555
18:00+16ююв4850100 0.0 1023193
21:00+12ю4764100 0.0 1023102
14 апреля, ср
ср1400:00+11ю386799 0.0 1023138
03:00+9ююв377486 0.0 1023113
06:00+8ююв367793 0.0 1022108
09:00+13ю596197 0.0 1022321
12:00+18ю6942100 0.0 1021813
15:00+19ю6934100 0.0 10191583
18:00+17ю4943100 0.0 1018206
21:00+13ююв41055100 0.0 1018174